Location: Amsterdam
(30.7274°N, 84.4357°W)
Time: 03:11:30
(UTC+00:00)

Tiros 1 - Pass Details

Date: 20 February 2026
Orbit: 618 x 649 km, 48.4° (Epoch: 7 March)

Event Time Altitude Azimuth Distance (km) Brightness Sun altitude
Rises 17:19:38 0° 323° (NW) 2,895 10.1 47.8°
Reaches altitude 10° 17:23:49 10° 360° (N) 1,982 9.4 48.0°
Maximum altitude 17:25:04 11° 16° (NNE) 1,916 9.3 48.1°
Drops below altitude 10° 17:26:20 10° 32° (NNE) 1,979 9.5 48.1°
Sets 17:30:29 0° 69° (ENE) 2,881 10.4 48.2°
